Content
SEND FEEDBACK

Daily
Averages
Monthly
Summary
United States of America

BERKELEY, MISSOURI


Home > North America > United States > Missouri
Elevation: 564 feet     Latitude: 38 45N     Longitude: 090 22W

WEATHER
 
SELECT A DAY
Number of Records: 203,439;   Date Range: 1/1/95 - 7/29/14
 
SHARE

PRINT THIS DATA

[ ← Previous Day ]
WEATHER ALMANAC - MAY 19, 2013
[ Next Day → ]
[ °C ]   °F
Weather ElementAverageHighLow
Temperature80.4 °F91 °F (3:51 pm)71.1 °F (5:51 am)
Dewpoint66.5 °F72 °F (11:51 am)61 °F (7:51 pm)
Humidity63.6 %81 % (5:51 am)43 % (7:51 pm)
Barometer29.80 in29.89 in (2:48 am)29.68 in (6:51 pm)
Wind Speed12.5 mph23 mph (4:51 pm)
Wind Gust28.8 mph (5:51 am)
Weather ElementAverage
Visibility9 mi
Wind DirectionSSE (149.2 °)

Weather ElementTotal
Precipitation---
Cooling Degree Days16.1 (Base 65)
Growing Degree Days31.1 (Base 50)
Averaged from 25 records on May 19, 2013
WEATHER CONDITIONS BREAKOUT
WIND DIRECTION BREAKOUT
WEATHER BY HOUR - MAY 19, 2013
[ °C ]   °F
Local TimeTemperatureDewpointHumidityBarometerVisibilityWind DirectionWind SpeedGust SpeedPrecipitationEventsConditions
1:51 AM73.0 °F64.0 °F73 %29.87 in10.0 miSE (140°)8.1 mphOvercast
2:48 AM73.4 °F64.4 °F73 %29.89 in10.0 miSE (130°)10.4 mphOvercast
2:51 AM73.4 °F64.4 °F73 %29.89 in10.0 miSE (130°)9.2 mphOvercast
3:04 AM71.6 °F64.4 °F78 %29.89 in10.0 miESE (120°)9.2 mphOvercast
3:51 AM72.0 °F64.0 °F76 %29.86 in10.0 miSE (140°)9.2 mphMostly Cloudy
4:51 AM72.0 °F64.0 °F76 %29.86 in10.0 miSE (130°)6.9 mphMostly Cloudy
5:51 AM71.1 °F64.9 °F81 %29.84 in9.0 miSE (140°)8.1 mph28.8 mphMostly Cloudy
6:51 AM72.0 °F64.9 °F78 %29.83 in9.0 miSE (130°)9.2 mphOvercast
7:51 AM73.9 °F66.0 °F76 %29.84 in9.0 miSSE (150°)9.2 mphMostly Cloudy
8:51 AM77.0 °F68.0 °F74 %29.85 in8.0 miSSE (160°)12.7 mphMostly Cloudy
9:51 AM78.1 °F69.1 °F74 %29.88 in8.0 miSW (220°)10.4 mphOvercast
10:51 AM82.9 °F71.1 °F67 %29.86 in8.0 miWSW (240°)4.6 mphMostly Cloudy
11:51 AM84.9 °F72.0 °F65 %29.82 in8.0 miSSE (150°)10.4 mphMostly Cloudy
12:51 PM87.1 °F71.1 °F59 %29.80 in7.0 miSE (130°)11.5 mphMostly Cloudy
1:51 PM88.0 °F70.0 °F55 %29.77 in7.0 miSE (130°)13.8 mph20.7 mphMostly Cloudy
2:51 PM90.0 °F70.0 °F52 %29.74 in8.0 miSE (140°)18.4 mph24.2 mphMostly Cloudy
3:51 PM91.0 °F68.0 °F47 %29.72 in8.0 miSSE (160°)19.6 mph28.8 mphScattered Clouds
4:51 PM90.0 °F70.0 °F52 %29.71 in8.0 miSSE (160°)23.0 mph28.8 mphScattered Clouds
5:51 PM89.1 °F69.1 °F52 %29.70 in8.0 miNorthScattered Clouds
6:51 PM87.1 °F68.0 °F53 %29.68 in9.0 miSSE (160°)19.6 mph25.3 mphScattered Clouds
7:51 PM86.0 °F61.0 °F43 %29.70 in10.0 miSouth (170°)12.7 mphMostly Cloudy
8:51 PM84.0 °F61.0 °F46 %29.72 in10.0 miSouth (170°)18.4 mph23.0 mphScattered Clouds
9:51 PM82.0 °F63.0 °F52 %29.75 in10.0 miSouth (170°)17.3 mph23.0 mphScattered Clouds
10:51 PM81.0 °F64.0 °F56 %29.78 in10.0 miSouth (180°)16.1 mph24.2 mphPartly Cloudy
11:51 PM80.1 °F64.9 °F60 %29.76 in10.0 miSouth (180°)12.7 mph19.6 mphScattered Clouds
Hourly data recorded from KSTL, located miles away from Berkeley, Missouri







STORIES FROM OUR PARTNERS